Year,Month,Day,Hour,Minute,Value (Times are PST for temperature in C)
2010,02,12,00,01,8.80
2010,02,12,00,02,8.80
2010,02,12,00,03,8.80
2010,02,12,00,05,8.80
2010,02,12,00,06,8.80
2010,02,12,00,07,8.80
2010,02,12,00,08,8.80
2010,02,12,00,10,8.80
2010,02,12,00,11,8.80
2010,02,12,00,12,8.80
2010,02,12,00,13,8.80
2010,02,12,00,14,8.80
2010,02,12,00,15,8.90
2010,02,12,00,17,8.80
2010,02,12,00,18,8.90
2010,02,12,00,20,8.90
2010,02,12,00,22,8.90
2010,02,12,00,23,8.80
2010,02,12,00,24,8.80
2010,02,12,00,25,8.80
2010,02,12,00,26,8.80
2010,02,12,00,27,8.80
2010,02,12,00,28,8.80
2010,02,12,00,30,8.80
2010,02,12,00,31,8.80
2010,02,12,00,32,8.80
2010,02,12,00,33,8.70
2010,02,12,00,34,8.70
2010,02,12,00,36,8.70
2010,02,12,00,37,8.70
2010,02,12,00,38,8.60
2010,02,12,00,40,8.60
2010,02,12,00,42,8.60
2010,02,12,00,43,8.60
2010,02,12,00,44,8.60
2010,02,12,00,45,8.60
2010,02,12,00,46,8.60
2010,02,12,00,47,8.60
2010,02,12,00,49,8.60
2010,02,12,00,50,8.60
2010,02,12,00,51,8.60
2010,02,12,00,52,8.60
2010,02,12,00,54,8.60
2010,02,12,00,55,8.60
2010,02,12,00,56,8.60
2010,02,12,00,57,8.60
2010,02,12,00,58,8.60
2010,02,12,01,00,8.50
2010,02,12,01,01,8.50
2010,02,12,01,02,8.50
2010,02,12,01,03,8.40
2010,02,12,01,04,8.40
2010,02,12,01,05,8.40
2010,02,12,01,07,8.40
2010,02,12,01,08,8.40
2010,02,12,01,10,8.40
2010,02,12,01,11,8.40
2010,02,12,01,13,8.40
2010,02,12,01,14,8.30
2010,02,12,01,15,8.30
2010,02,12,01,16,8.30
2010,02,12,01,18,8.30
2010,02,12,01,20,8.30
2010,02,12,01,21,8.30
2010,02,12,01,23,8.30
2010,02,12,01,24,8.30
2010,02,12,01,25,8.20
2010,02,12,01,26,8.20
2010,02,12,01,27,8.20
2010,02,12,01,28,8.20
2010,02,12,01,30,8.10
2010,02,12,01,32,8.10
2010,02,12,01,33,8.10
2010,02,12,01,34,8.00
2010,02,12,01,35,8.00
2010,02,12,01,37,7.90
2010,02,12,01,38,7.90
2010,02,12,01,40,7.90
2010,02,12,01,41,7.90
2010,02,12,01,43,7.90
2010,02,12,01,44,7.90
2010,02,12,01,45,7.80
2010,02,12,01,46,7.80
2010,02,12,01,48,7.80
2010,02,12,01,49,7.80
2010,02,12,01,50,7.80
2010,02,12,01,51,7.80
2010,02,12,01,52,7.80
2010,02,12,01,54,7.80
2010,02,12,01,55,7.70
2010,02,12,01,56,7.70
2010,02,12,01,57,7.70
2010,02,12,01,58,7.70
2010,02,12,02,00,7.60
2010,02,12,02,02,7.60
2010,02,12,02,03,7.60
2010,02,12,02,04,7.60
2010,02,12,02,06,7.60
2010,02,12,02,07,7.60
2010,02,12,02,08,7.50
2010,02,12,02,09,7.50
2010,02,12,02,12,7.40
2010,02,12,02,13,7.40
2010,02,12,02,14,7.30
2010,02,12,02,15,7.30
2010,02,12,02,17,7.30
2010,02,12,02,18,7.30
2010,02,12,02,19,7.30
2010,02,12,02,22,7.30
2010,02,12,02,23,7.30
2010,02,12,02,24,7.30
2010,02,12,02,25,7.30
2010,02,12,02,27,7.30
2010,02,12,02,28,7.30
2010,02,12,02,30,7.30
2010,02,12,02,31,7.30
2010,02,12,02,32,7.40
2010,02,12,02,33,7.40
2010,02,12,02,34,7.40
2010,02,12,02,36,7.40
2010,02,12,02,37,7.40
2010,02,12,02,38,7.40
2010,02,12,02,39,7.40
2010,02,12,02,42,7.40
2010,02,12,02,43,7.40
2010,02,12,02,44,7.40
2010,02,12,02,45,7.40
2010,02,12,02,47,7.30
2010,02,12,02,48,7.40
2010,02,12,02,50,7.30
2010,02,12,02,51,7.40
2010,02,12,02,53,7.40
2010,02,12,02,54,7.30
2010,02,12,02,55,7.30
2010,02,12,02,56,7.30
2010,02,12,02,58,7.30
2010,02,12,02,59,7.30
2010,02,12,03,00,7.30
2010,02,12,03,01,7.30
2010,02,12,03,02,7.30
2010,02,12,03,04,7.30
2010,02,12,03,05,7.30
2010,02,12,03,06,7.30
2010,02,12,03,07,7.30
2010,02,12,03,08,7.30
2010,02,12,03,10,7.30
2010,02,12,03,11,7.30
2010,02,12,03,12,7.30
2010,02,12,03,13,7.30
2010,02,12,03,14,7.30
2010,02,12,03,16,7.30
2010,02,12,03,17,7.30
2010,02,12,03,18,7.30
2010,02,12,03,19,7.30
2010,02,12,03,22,7.40
2010,02,12,03,23,7.40
2010,02,12,03,24,7.40
2010,02,12,03,25,7.30
2010,02,12,03,26,7.40
2010,02,12,03,28,7.30
2010,02,12,03,30,7.30
2010,02,12,03,31,7.30
2010,02,12,03,32,7.30
2010,02,12,03,33,7.30
2010,02,12,03,35,7.30
2010,02,12,03,36,7.30
2010,02,12,03,37,7.30
2010,02,12,03,38,7.20
2010,02,12,03,40,7.20
2010,02,12,03,42,7.10
2010,02,12,03,43,7.10
2010,02,12,03,45,7.10
2010,02,12,03,47,7.10
2010,02,12,03,48,7.10
2010,02,12,03,50,7.00
2010,02,12,03,52,6.90
2010,02,12,03,54,6.90
2010,02,12,03,55,6.90
2010,02,12,03,56,6.90
2010,02,12,03,57,6.80
2010,02,12,03,59,6.80
2010,02,12,04,00,6.80
2010,02,12,04,01,6.80
2010,02,12,04,02,6.70
2010,02,12,04,03,6.70
2010,02,12,04,05,6.70
2010,02,12,04,07,6.60
2010,02,12,04,08,6.60
2010,02,12,04,10,6.60
2010,02,12,04,11,6.60
2010,02,12,04,12,6.60
2010,02,12,04,13,6.60
2010,02,12,04,16,6.50
2010,02,12,04,17,6.60
2010,02,12,04,18,6.50
2010,02,12,04,20,6.50
2010,02,12,04,22,6.50
2010,02,12,04,23,6.50
2010,02,12,04,24,6.50
2010,02,12,04,27,6.40
2010,02,12,04,28,6.40
2010,02,12,04,30,6.40
2010,02,12,04,31,6.40
2010,02,12,04,32,6.40
2010,02,12,04,34,6.30
2010,02,12,04,35,6.30
2010,02,12,04,36,6.20
2010,02,12,04,37,6.20
2010,02,12,04,38,6.20
2010,02,12,04,40,6.20
2010,02,12,04,41,6.10
2010,02,12,04,42,6.10
2010,02,12,04,43,6.10
2010,02,12,04,44,6.10
2010,02,12,04,46,6.10
2010,02,12,04,47,6.10
2010,02,12,04,48,6.20
2010,02,12,04,50,6.20
2010,02,12,04,52,6.30
2010,02,12,04,53,6.30
2010,02,12,04,54,6.40
2010,02,12,04,55,6.40
2010,02,12,04,56,6.50
2010,02,12,04,58,6.50
2010,02,12,04,59,6.60
2010,02,12,05,00,6.70
2010,02,12,05,01,6.70
2010,02,12,05,02,6.70
2010,02,12,05,03,6.70
2010,02,12,05,05,6.70
2010,02,12,05,06,6.70
2010,02,12,05,07,6.70
2010,02,12,05,08,6.70
2010,02,12,05,10,6.70
2010,02,12,05,11,6.80
2010,02,12,05,12,6.80
2010,02,12,05,13,6.80
2010,02,12,05,14,6.80
2010,02,12,05,15,6.80
2010,02,12,05,17,6.80
2010,02,12,05,18,6.80
2010,02,12,05,20,6.90
2010,02,12,05,21,6.90
2010,02,12,05,23,6.90
2010,02,12,05,24,6.80
2010,02,12,05,25,6.90
2010,02,12,05,26,6.80
2010,02,12,05,27,6.80
2010,02,12,05,29,6.80
2010,02,12,05,31,6.90
2010,02,12,05,32,6.90
2010,02,12,05,33,6.90
2010,02,12,05,34,6.90
2010,02,12,05,35,6.90
2010,02,12,05,37,6.90
2010,02,12,05,38,6.90
2010,02,12,05,40,6.90
2010,02,12,05,41,6.90
2010,02,12,05,43,6.90
2010,02,12,05,44,6.80
2010,02,12,05,45,6.80
2010,02,12,05,46,6.80
2010,02,12,05,48,6.80
2010,02,12,05,50,6.70
2010,02,12,05,51,6.70
2010,02,12,05,53,6.70
2010,02,12,05,54,6.70
2010,02,12,05,55,6.70
2010,02,12,05,56,6.70
2010,02,12,05,58,6.70
2010,02,12,05,59,6.60
2010,02,12,06,00,6.60
2010,02,12,06,01,6.60
2010,02,12,06,03,6.60
2010,02,12,06,04,6.60
2010,02,12,06,05,6.50
2010,02,12,06,06,6.50
2010,02,12,06,07,6.50
2010,02,12,06,09,6.50
2010,02,12,06,10,6.50
2010,02,12,06,11,6.50
2010,02,12,06,12,6.40
2010,02,12,06,14,6.40
2010,02,12,06,15,6.40
2010,02,12,06,16,6.40
2010,02,12,06,17,6.40
2010,02,12,06,18,6.40
2010,02,12,06,20,6.50
2010,02,12,06,21,6.60
2010,02,12,06,22,6.60
2010,02,12,06,23,6.60
2010,02,12,06,25,6.60
2010,02,12,06,26,6.60
2010,02,12,06,27,6.60
2010,02,12,06,28,6.60
2010,02,12,06,30,6.60
2010,02,12,06,32,6.70
2010,02,12,06,33,6.70
2010,02,12,06,34,6.70
2010,02,12,06,35,6.70
2010,02,12,06,36,6.70
2010,02,12,06,38,6.70
2010,02,12,06,39,6.70
2010,02,12,06,40,6.70
2010,02,12,06,41,6.70
2010,02,12,06,42,6.70
2010,02,12,06,44,6.60
2010,02,12,06,45,6.70
2010,02,12,06,46,6.70
2010,02,12,06,47,6.70
2010,02,12,06,49,6.70
2010,02,12,06,50,6.60
2010,02,12,06,51,6.60
2010,02,12,06,52,6.60
2010,02,12,06,53,6.60
2010,02,12,06,55,6.60
2010,02,12,06,56,6.70
2010,02,12,06,57,6.70
2010,02,12,06,58,6.70
2010,02,12,06,59,6.70
2010,02,12,07,02,6.70
2010,02,12,07,03,6.70
2010,02,12,07,04,6.70
2010,02,12,07,05,6.70
2010,02,12,07,07,6.70
2010,02,12,07,08,6.70
2010,02,12,07,10,6.70
2010,02,12,07,11,6.70
2010,02,12,07,12,6.70
2010,02,12,07,14,6.70
2010,02,12,07,15,6.70
2010,02,12,07,16,6.70
2010,02,12,07,17,6.70
2010,02,12,07,19,6.70
2010,02,12,07,20,6.70
2010,02,12,07,21,6.70
2010,02,12,07,22,6.70
2010,02,12,07,24,6.70
2010,02,12,07,25,6.70
2010,02,12,07,26,6.70
2010,02,12,07,27,6.70
2010,02,12,07,28,6.70
2010,02,12,07,30,6.70
2010,02,12,07,32,6.70
2010,02,12,07,33,6.80
2010,02,12,07,34,6.80
2010,02,12,07,35,6.80
2010,02,12,07,37,6.80
2010,02,12,07,38,6.80
2010,02,12,07,39,6.80
2010,02,12,07,40,6.80
2010,02,12,07,41,6.80
2010,02,12,07,43,6.90
2010,02,12,07,44,6.90
2010,02,12,07,45,6.90
2010,02,12,07,46,6.90
2010,02,12,07,47,6.90
2010,02,12,07,49,6.90
2010,02,12,07,50,7.00
2010,02,12,07,51,7.00
2010,02,12,07,52,7.10
2010,02,12,07,53,7.10
2010,02,12,07,55,7.10
2010,02,12,07,56,7.10
2010,02,12,07,57,7.10
2010,02,12,07,58,7.10
2010,02,12,08,00,7.10
2010,02,12,08,02,7.20
2010,02,12,08,03,7.20
2010,02,12,08,04,7.20
2010,02,12,08,06,7.30
2010,02,12,08,07,7.30
2010,02,12,08,08,7.30
2010,02,12,08,09,7.30
2010,02,12,08,12,7.30
2010,02,12,08,13,7.30
2010,02,12,08,14,7.30
2010,02,12,08,15,7.30
2010,02,12,08,17,7.40
2010,02,12,08,18,7.40
2010,02,12,08,20,7.40
2010,02,12,08,21,7.40
2010,02,12,08,23,7.40
2010,02,12,08,24,7.40
2010,02,12,08,25,7.40
2010,02,12,08,26,7.40
2010,02,12,08,27,7.50
2010,02,12,08,29,7.50
2010,02,12,08,30,7.50
2010,02,12,08,32,7.50
2010,02,12,08,33,7.50
2010,02,12,08,34,7.50
2010,02,12,08,35,7.50
2010,02,12,08,37,7.50
2010,02,12,08,38,7.50
2010,02,12,08,40,7.50
2010,02,12,08,42,7.40
2010,02,12,08,43,7.40
2010,02,12,08,44,7.40
2010,02,12,08,45,7.40
2010,02,12,08,47,7.40
2010,02,12,08,48,7.40
2010,02,12,08,50,7.40
2010,02,12,08,51,7.40
2010,02,12,08,53,7.40
2010,02,12,08,54,7.40
2010,02,12,08,55,7.40
2010,02,12,08,56,7.40
2010,02,12,08,58,7.40
2010,02,12,08,59,7.50
2010,02,12,09,00,7.50
2010,02,12,09,03,7.50
2010,02,12,09,04,7.50
2010,02,12,09,06,7.50
2010,02,12,09,07,7.60
2010,02,12,09,09,7.60
2010,02,12,09,10,7.60
2010,02,12,09,11,7.60
2010,02,12,09,12,7.60
2010,02,12,09,13,7.60
2010,02,12,09,15,7.60
2010,02,12,09,16,7.60
2010,02,12,09,17,7.70
2010,02,12,09,18,7.70
2010,02,12,09,19,7.70
2010,02,12,09,22,7.70
2010,02,12,09,23,7.80
2010,02,12,09,24,7.80
2010,02,12,09,26,7.80
2010,02,12,09,27,7.80
2010,02,12,09,28,7.80
2010,02,12,09,30,7.90
2010,02,12,09,33,7.90
2010,02,12,09,34,8.00
2010,02,12,09,35,8.00
2010,02,12,09,36,8.10
2010,02,12,09,37,8.10
2010,02,12,09,39,8.10
2010,02,12,09,40,8.10
2010,02,12,09,41,8.10
2010,02,12,09,42,8.10
2010,02,12,09,44,8.10
2010,02,12,09,45,8.10
2010,02,12,09,46,8.10
2010,02,12,09,47,8.10
2010,02,12,09,48,8.10
2010,02,12,09,50,8.10
2010,02,12,09,51,8.10
2010,02,12,09,52,8.10
2010,02,12,09,53,8.10
2010,02,12,09,54,8.10
2010,02,12,09,56,8.10
2010,02,12,09,57,8.10
2010,02,12,09,58,8.10
2010,02,12,10,00,8.00
2010,02,12,10,02,7.90
2010,02,12,10,03,7.80
2010,02,12,10,04,7.80
2010,02,12,10,05,7.70
2010,02,12,10,07,7.70
2010,02,12,10,08,7.60
2010,02,12,10,09,7.60
2010,02,12,10,12,7.60
2010,02,12,10,13,7.60
2010,02,12,10,14,7.50
2010,02,12,10,15,7.50
2010,02,12,10,16,7.50
2010,02,12,10,17,7.50
2010,02,12,10,19,7.50
2010,02,12,10,20,7.50
2010,02,12,10,21,7.60
2010,02,12,10,22,7.50
2010,02,12,10,23,7.60
2010,02,12,10,25,7.60
2010,02,12,10,26,7.60
2010,02,12,10,27,7.60
2010,02,12,10,28,7.60
2010,02,12,10,29,7.60
2010,02,12,10,33,7.70
2010,02,12,10,34,7.70
2010,02,12,10,35,7.70
2010,02,12,10,36,7.70
2010,02,12,10,38,7.70
2010,02,12,10,39,7.70
2010,02,12,10,40,7.70
2010,02,12,10,41,7.80
2010,02,12,10,42,7.80
2010,02,12,10,43,7.80
2010,02,12,10,45,7.80
2010,02,12,10,46,7.80
2010,02,12,10,47,7.90
2010,02,12,10,48,7.90
2010,02,12,10,50,7.90
2010,02,12,10,51,7.90
2010,02,12,10,52,7.90
2010,02,12,10,53,7.90
2010,02,12,10,55,8.00
2010,02,12,10,56,8.00
2010,02,12,10,57,8.00
2010,02,12,10,58,8.10
2010,02,12,11,00,8.10
2010,02,12,11,02,8.10
2010,02,12,11,03,8.10
2010,02,12,11,04,8.10
2010,02,12,11,05,8.10
2010,02,12,11,07,8.20
2010,02,12,11,08,8.20
2010,02,12,11,10,8.20
2010,02,12,11,11,8.20
2010,02,12,11,13,8.20
2010,02,12,11,14,8.20
2010,02,12,11,15,8.20
2010,02,12,11,16,8.20
2010,02,12,11,18,8.20
2010,02,12,11,20,8.30
2010,02,12,11,21,8.30
2010,02,12,11,23,8.30
2010,02,12,11,24,8.30
2010,02,12,11,25,8.40
2010,02,12,11,26,8.40
2010,02,12,11,27,8.40
2010,02,12,11,28,8.40
2010,02,12,11,30,8.40
2010,02,12,11,32,8.40
2010,02,12,11,33,8.40
2010,02,12,11,35,8.40
2010,02,12,11,36,8.40
2010,02,12,11,37,8.40
2010,02,12,11,38,8.50
2010,02,12,11,40,8.60
2010,02,12,11,41,8.70
2010,02,12,11,42,8.80
2010,02,12,11,43,8.80
2010,02,12,11,44,8.90
2010,02,12,11,46,9.00
2010,02,12,11,47,9.10
2010,02,12,11,48,9.10
2010,02,12,11,49,9.10
2010,02,12,11,52,9.20
2010,02,12,11,53,9.20
2010,02,12,11,54,9.20
2010,02,12,11,55,9.20
2010,02,12,11,57,9.20
2010,02,12,11,58,9.30
2010,02,12,11,59,9.30
2010,02,12,12,02,9.30
2010,02,12,12,03,9.30
2010,02,12,12,04,9.30
2010,02,12,12,06,9.30
2010,02,12,12,07,9.30
2010,02,12,12,08,9.40
2010,02,12,12,10,9.40
2010,02,12,12,12,9.40
2010,02,12,12,13,9.40
2010,02,12,12,14,9.50
2010,02,12,12,15,9.60
2010,02,12,12,16,9.60
2010,02,12,12,18,9.60
2010,02,12,12,19,9.60
2010,02,12,12,20,9.60
2010,02,12,12,21,9.70
2010,02,12,12,22,9.70
2010,02,12,12,24,9.70
2010,02,12,12,25,9.80
2010,02,12,12,26,9.80
2010,02,12,12,27,9.80
2010,02,12,12,29,9.90
2010,02,12,12,30,9.90
2010,02,12,12,32,10.00
2010,02,12,12,33,10.10
2010,02,12,12,34,10.10
2010,02,12,12,36,10.00
2010,02,12,12,37,10.00
2010,02,12,12,38,9.90
2010,02,12,12,39,9.90
2010,02,12,12,42,10.00
2010,02,12,12,43,10.10
2010,02,12,12,44,10.10
2010,02,12,12,45,10.20
2010,02,12,12,47,10.20
2010,02,12,12,48,10.10
2010,02,12,12,49,10.10
2010,02,12,12,52,10.00
2010,02,12,12,53,10.00
2010,02,12,12,54,10.00
2010,02,12,12,55,9.90
2010,02,12,12,56,9.90
2010,02,12,12,57,9.90
2010,02,12,12,58,9.90
2010,02,12,13,00,9.90
2010,02,12,13,03,9.90
2010,02,12,13,04,9.80
2010,02,12,13,05,9.80
2010,02,12,13,06,9.80
2010,02,12,13,08,9.80
2010,02,12,13,09,9.80
2010,02,12,13,10,9.80
2010,02,12,13,11,9.90
2010,02,12,13,12,9.90
2010,02,12,13,14,10.00
2010,02,12,13,15,10.10
2010,02,12,13,16,10.20
2010,02,12,13,17,10.20
2010,02,12,13,18,10.30
2010,02,12,13,20,10.30
2010,02,12,13,21,10.20
2010,02,12,13,22,10.20
2010,02,12,13,23,10.10
2010,02,12,13,24,10.00
2010,02,12,13,25,9.90
2010,02,12,13,27,10.00
2010,02,12,13,28,10.10
2010,02,12,13,30,10.20
2010,02,12,13,31,10.30
2010,02,12,13,32,10.30
2010,02,12,13,33,10.30
2010,02,12,13,35,10.30
2010,02,12,13,36,10.30
2010,02,12,13,37,10.30
2010,02,12,13,38,10.30
2010,02,12,13,40,10.30
2010,02,12,13,41,10.40
2010,02,12,13,42,10.40
2010,02,12,13,43,10.40
2010,02,12,13,44,10.40
2010,02,12,13,45,10.40
2010,02,12,13,47,10.30
2010,02,12,13,48,10.30
2010,02,12,13,50,10.20
2010,02,12,13,51,10.10
2010,02,12,13,52,10.00
2010,02,12,13,54,10.00
2010,02,12,13,55,10.00
2010,02,12,13,56,10.00
2010,02,12,13,57,10.10
2010,02,12,13,59,10.10
2010,02,12,14,00,10.10
2010,02,12,14,01,10.10
2010,02,12,14,02,10.10
2010,02,12,14,04,10.20
2010,02,12,14,05,10.20
2010,02,12,14,06,10.20
2010,02,12,14,07,10.20
2010,02,12,14,08,10.10
2010,02,12,14,09,10.10
2010,02,12,14,12,10.00
2010,02,12,14,13,9.90
2010,02,12,14,14,9.80
2010,02,12,14,15,9.80
2010,02,12,14,17,9.70
2010,02,12,14,18,9.60
2010,02,12,14,20,9.60
2010,02,12,14,21,9.60
2010,02,12,14,23,9.60
2010,02,12,14,24,9.70
2010,02,12,14,25,9.70
2010,02,12,14,26,9.80
2010,02,12,14,27,9.80
2010,02,12,14,29,9.90
2010,02,12,14,31,9.90
2010,02,12,14,32,10.00
2010,02,12,14,33,10.00
2010,02,12,14,34,10.10
2010,02,12,14,35,10.20
2010,02,12,14,37,10.20
2010,02,12,14,38,10.30
2010,02,12,14,40,10.30
2010,02,12,14,41,10.30
2010,02,12,14,43,10.30
2010,02,12,14,44,10.40
2010,02,12,14,45,10.40
2010,02,12,14,46,10.40
2010,02,12,14,48,10.40
2010,02,12,14,50,10.30
2010,02,12,14,51,10.20
2010,02,12,14,53,10.20
2010,02,12,14,54,10.10
2010,02,12,14,55,10.10
2010,02,12,14,56,10.10
2010,02,12,14,58,10.10
2010,02,12,14,59,10.10
2010,02,12,15,00,10.10
2010,02,12,15,01,10.00
2010,02,12,15,02,10.10
2010,02,12,15,04,10.00
2010,02,12,15,05,10.00
2010,02,12,15,06,10.00
2010,02,12,15,07,10.00
2010,02,12,15,08,10.00
2010,02,12,15,10,10.00
2010,02,12,15,11,9.90
2010,02,12,15,12,9.90
2010,02,12,15,13,9.90
2010,02,12,15,14,9.90
2010,02,12,15,16,9.90
2010,02,12,15,17,9.90
2010,02,12,15,18,9.80
2010,02,12,15,20,9.80
2010,02,12,15,21,9.80
2010,02,12,15,23,9.80
2010,02,12,15,24,9.80
2010,02,12,15,25,9.70
2010,02,12,15,26,9.70
2010,02,12,15,27,9.70
2010,02,12,15,29,9.70
2010,02,12,15,30,9.70
2010,02,12,15,32,9.60
2010,02,12,15,33,9.60
2010,02,12,15,34,9.60
2010,02,12,15,35,9.60
2010,02,12,15,37,9.60
2010,02,12,15,38,9.60
2010,02,12,15,40,9.60
2010,02,12,15,41,9.60
2010,02,12,15,43,9.60
2010,02,12,15,44,9.60
2010,02,12,15,45,9.60
2010,02,12,15,46,9.60
2010,02,12,15,48,9.60
2010,02,12,15,49,9.60
2010,02,12,15,50,9.60
2010,02,12,15,51,9.60
2010,02,12,15,52,9.60
2010,02,12,15,54,9.60
2010,02,12,15,55,9.60
2010,02,12,15,56,9.60
2010,02,12,15,57,9.60
2010,02,12,15,58,9.60
2010,02,12,16,00,9.60
2010,02,12,16,02,9.60
2010,02,12,16,03,9.60
2010,02,12,16,04,9.60
2010,02,12,16,05,9.50
2010,02,12,16,07,9.50
2010,02,12,16,08,9.40
2010,02,12,16,10,9.40
2010,02,12,16,12,9.40
2010,02,12,16,13,9.40
2010,02,12,16,14,9.40
2010,02,12,16,15,9.40
2010,02,12,16,16,9.40
2010,02,12,16,17,9.40
2010,02,12,16,19,9.30
2010,02,12,16,20,9.30
2010,02,12,16,21,9.30
2010,02,12,16,22,9.30
2010,02,12,16,24,9.30
2010,02,12,16,25,9.30
2010,02,12,16,26,9.30
2010,02,12,16,27,9.30
2010,02,12,16,28,9.30
2010,02,12,16,30,9.30
2010,02,12,16,31,9.30
2010,02,12,16,32,9.30
2010,02,12,16,33,9.30
2010,02,12,16,34,9.30
2010,02,12,16,36,9.30
2010,02,12,16,37,9.30
2010,02,12,16,38,9.20
2010,02,12,16,40,9.20
2010,02,12,16,42,9.20
2010,02,12,16,43,9.20
2010,02,12,16,44,9.10
2010,02,12,16,45,9.10
2010,02,12,16,46,9.10
2010,02,12,16,48,9.10
2010,02,12,16,50,9.10
2010,02,12,16,51,9.10
2010,02,12,16,53,9.10
2010,02,12,16,54,9.10
2010,02,12,16,55,9.10
2010,02,12,16,56,9.00
2010,02,12,16,57,9.10
2010,02,12,16,59,9.10
2010,02,12,17,00,9.00
2010,02,12,17,02,9.00
2010,02,12,17,03,9.00
2010,02,12,17,04,9.00
2010,02,12,17,06,9.00
2010,02,12,17,07,8.90
2010,02,12,17,08,8.90
2010,02,12,17,10,8.90
2010,02,12,17,12,8.90
2010,02,12,17,13,8.80
2010,02,12,17,14,8.80
2010,02,12,17,15,8.80
2010,02,12,17,16,8.80
2010,02,12,17,17,8.80
2010,02,12,17,19,8.80
2010,02,12,17,20,8.80
2010,02,12,17,21,8.80
2010,02,12,17,22,8.80
2010,02,12,17,24,8.80
2010,02,12,17,25,8.80
2010,02,12,17,26,8.80
2010,02,12,17,27,8.70
2010,02,12,17,29,8.70
2010,02,12,17,30,8.70
2010,02,12,17,32,8.60
2010,02,12,17,33,8.50
2010,02,12,17,35,8.40
2010,02,12,17,36,8.40
2010,02,12,17,37,8.40
2010,02,12,17,38,8.40
2010,02,12,17,40,8.30
2010,02,12,17,42,8.30
2010,02,12,17,43,8.30
2010,02,12,17,44,8.20
2010,02,12,17,45,8.20
2010,02,12,17,46,8.20
2010,02,12,17,47,8.20
2010,02,12,17,49,8.20
2010,02,12,17,50,8.20
2010,02,12,17,51,8.20
2010,02,12,17,52,8.20
2010,02,12,17,54,8.20
2010,02,12,17,55,8.20
2010,02,12,17,56,8.10
2010,02,12,17,57,8.10
2010,02,12,17,58,8.10
2010,02,12,18,00,8.10
2010,02,12,18,01,8.10
2010,02,12,18,02,8.00
2010,02,12,18,03,8.00
2010,02,12,18,04,7.90
2010,02,12,18,05,7.90
2010,02,12,18,07,7.90
2010,02,12,18,08,7.80
2010,02,12,18,10,7.80
2010,02,12,18,11,7.80
2010,02,12,18,13,7.70
2010,02,12,18,14,7.70
2010,02,12,18,15,7.70
2010,02,12,18,16,7.70
2010,02,12,18,17,7.70
2010,02,12,18,19,7.70
2010,02,12,18,20,7.60
2010,02,12,18,21,7.60
2010,02,12,18,22,7.70
2010,02,12,18,24,7.70
2010,02,12,18,25,7.70
2010,02,12,18,26,7.70
2010,02,12,18,27,7.70
2010,02,12,18,29,7.70
2010,02,12,18,30,7.70
2010,02,12,18,31,7.70
2010,02,12,18,32,7.70
2010,02,12,18,33,7.70
2010,02,12,18,34,7.70
2010,02,12,18,36,7.70
2010,02,12,18,37,7.70
2010,02,12,18,38,7.70
2010,02,12,18,39,7.70
2010,02,12,18,42,7.70
2010,02,12,18,43,7.80
2010,02,12,18,44,7.70
2010,02,12,18,45,7.70
2010,02,12,18,47,7.70
2010,02,12,18,48,7.70
2010,02,12,18,50,7.70
2010,02,12,18,51,7.70
2010,02,12,18,53,7.70
2010,02,12,18,54,7.70
2010,02,12,18,55,7.70
2010,02,12,18,56,7.70
2010,02,12,18,57,7.70
2010,02,12,18,59,7.70
2010,02,12,19,00,7.70
2010,02,12,19,01,7.70
2010,02,12,19,02,7.70
2010,02,12,19,03,7.70
2010,02,12,19,05,7.70
2010,02,12,19,06,7.70
2010,02,12,19,07,7.70
2010,02,12,19,08,7.70
2010,02,12,19,09,7.70
2010,02,12,19,12,7.70
2010,02,12,19,13,7.70
2010,02,12,19,14,7.70
2010,02,12,19,15,7.70
2010,02,12,19,16,7.70
2010,02,12,19,18,7.70
2010,02,12,19,20,7.70
2010,02,12,19,21,7.70
2010,02,12,19,23,7.70
2010,02,12,19,24,7.70
2010,02,12,19,25,7.70
2010,02,12,19,26,7.70
2010,02,12,19,27,7.70
2010,02,12,19,28,7.70
2010,02,12,19,30,7.70
2010,02,12,19,31,7.70
2010,02,12,19,32,7.70
2010,02,12,19,33,7.70
2010,02,12,19,34,7.70
2010,02,12,19,35,7.70
2010,02,12,19,37,7.70
2010,02,12,19,38,7.70
2010,02,12,19,39,7.70
2010,02,12,19,42,7.70
2010,02,12,19,43,7.70
2010,02,12,19,44,7.70
2010,02,12,19,45,7.70
2010,02,12,19,47,7.70
2010,02,12,19,48,7.70
2010,02,12,19,50,7.70
2010,02,12,19,52,7.70
2010,02,12,19,53,7.70
2010,02,12,19,54,7.70
2010,02,12,19,55,7.60
2010,02,12,19,56,7.60
2010,02,12,19,58,7.60
2010,02,12,19,59,7.60
2010,02,12,20,00,7.50
2010,02,12,20,01,7.50
2010,02,12,20,02,7.40
2010,02,12,20,04,7.40
2010,02,12,20,05,7.40
2010,02,12,20,06,7.40
2010,02,12,20,07,7.40
2010,02,12,20,08,7.30
2010,02,12,20,10,7.30
2010,02,12,20,11,7.30
2010,02,12,20,12,7.30
2010,02,12,20,13,7.30
2010,02,12,20,14,7.20
2010,02,12,20,16,7.20
2010,02,12,20,17,7.20
2010,02,12,20,18,7.20
2010,02,12,20,20,7.20
2010,02,12,20,22,7.20
2010,02,12,20,23,7.10
2010,02,12,20,24,7.10
2010,02,12,20,25,7.10
2010,02,12,20,26,7.10
2010,02,12,20,28,7.00
2010,02,12,20,30,7.00
2010,02,12,20,31,6.90
2010,02,12,20,32,6.90
2010,02,12,20,34,6.90
2010,02,12,20,35,6.90
2010,02,12,20,36,6.90
2010,02,12,20,37,7.00
2010,02,12,20,38,7.00
2010,02,12,20,40,7.00
2010,02,12,20,41,7.00
2010,02,12,20,42,7.00
2010,02,12,20,43,7.10
2010,02,12,20,45,7.10
2010,02,12,20,46,7.10
2010,02,12,20,47,7.10
2010,02,12,20,48,7.10
2010,02,12,20,50,7.10
2010,02,12,20,51,7.20
2010,02,12,20,52,7.20
2010,02,12,20,54,7.20
2010,02,12,20,56,7.20
2010,02,12,20,57,7.20
2010,02,12,20,58,7.20
2010,02,12,21,00,7.30
2010,02,12,21,02,7.30
2010,02,12,21,03,7.30
2010,02,12,21,04,7.30
2010,02,12,21,05,7.30
2010,02,12,21,06,7.30
2010,02,12,21,08,7.30
2010,02,12,21,10,7.40
2010,02,12,21,12,7.40
2010,02,12,21,13,7.40
2010,02,12,21,14,7.40
2010,02,12,21,15,7.40
2010,02,12,21,16,7.40
2010,02,12,21,18,7.40
2010,02,12,21,20,7.40
2010,02,12,21,21,7.40
2010,02,12,21,22,7.40
2010,02,12,21,24,7.40
2010,02,12,21,25,7.30
2010,02,12,21,26,7.30
2010,02,12,21,27,7.30
2010,02,12,21,29,7.30
2010,02,12,21,30,7.30
2010,02,12,21,33,7.30
2010,02,12,21,34,7.30
2010,02,12,21,35,7.30
2010,02,12,21,36,7.30
2010,02,12,21,38,7.30
2010,02,12,21,39,7.30
2010,02,12,21,40,7.30
2010,02,12,21,41,7.30
2010,02,12,21,42,7.30
2010,02,12,21,44,7.30
2010,02,12,21,45,7.30
2010,02,12,21,46,7.30
2010,02,12,21,47,7.30
2010,02,12,21,48,7.20
2010,02,12,21,49,7.20
2010,02,12,21,52,7.20
2010,02,12,21,53,7.20
2010,02,12,21,54,7.20
2010,02,12,21,55,7.20
2010,02,12,21,57,7.20
2010,02,12,21,58,7.20
2010,02,12,22,00,7.30
2010,02,12,22,02,7.30
2010,02,12,22,03,7.30
2010,02,12,22,04,7.30
2010,02,12,22,05,7.30
2010,02,12,22,06,7.30
2010,02,12,22,07,7.30
2010,02,12,22,08,7.30
2010,02,12,22,10,7.30
2010,02,12,22,12,7.30
2010,02,12,22,13,7.30
2010,02,12,22,14,7.30
2010,02,12,22,15,7.30
2010,02,12,22,16,7.30
2010,02,12,22,18,7.30
2010,02,12,22,20,7.40
2010,02,12,22,21,7.40
2010,02,12,22,23,7.40
2010,02,12,22,24,7.40
2010,02,12,22,25,7.50
2010,02,12,22,26,7.50
2010,02,12,22,28,7.50
2010,02,12,22,30,7.50
2010,02,12,22,31,7.50
2010,02,12,22,32,7.50
2010,02,12,22,34,7.50
2010,02,12,22,35,7.50
2010,02,12,22,36,7.50
2010,02,12,22,37,7.50
2010,02,12,22,38,7.50
2010,02,12,22,40,7.60
2010,02,12,22,41,7.60
2010,02,12,22,42,7.60
2010,02,12,22,43,7.60
2010,02,12,22,44,7.60
2010,02,12,22,45,7.60
2010,02,12,22,47,7.60
2010,02,12,22,48,7.60
2010,02,12,22,50,7.60
2010,02,12,22,51,7.70
2010,02,12,22,53,7.70
2010,02,12,22,54,7.70
2010,02,12,22,55,7.70
2010,02,12,22,56,7.70
2010,02,12,22,57,7.70
2010,02,12,22,58,7.70
2010,02,12,23,00,7.70
2010,02,12,23,01,7.70
2010,02,12,23,02,7.70
2010,02,12,23,03,7.70
2010,02,12,23,04,7.70
2010,02,12,23,06,7.70
2010,02,12,23,07,7.70
2010,02,12,23,08,7.70
2010,02,12,23,10,7.70
2010,02,12,23,11,7.70
2010,02,12,23,13,7.70
2010,02,12,23,14,7.70
2010,02,12,23,15,7.70
2010,02,12,23,16,7.70
2010,02,12,23,17,7.70
2010,02,12,23,19,7.70
2010,02,12,23,20,7.70
2010,02,12,23,21,7.60
2010,02,12,23,22,7.60
2010,02,12,23,23,7.60
2010,02,12,23,25,7.60
2010,02,12,23,26,7.60
2010,02,12,23,27,7.60
2010,02,12,23,28,7.60
2010,02,12,23,29,7.60
2010,02,12,23,32,7.60
2010,02,12,23,33,7.60
2010,02,12,23,34,7.60
2010,02,12,23,35,7.60
2010,02,12,23,36,7.60
2010,02,12,23,38,7.60
2010,02,12,23,39,7.60
2010,02,12,23,40,7.60
2010,02,12,23,41,7.60